User: anonymous   Login
Location: UBC Liquid-Mirror Observatory
(49.2876°N, 122.5728°W)
Time: 14:04:25
(UTC-08:00)
Language:

KITSAT 1 - Orbit

View from above orbital plane
View from above orbital plane
View from above satellite
View from above satellite

Ground track
Ground track

The orbit data is extracted from the following two-line orbital elements,

1 22077U 92052B   14354.84825476 -.00000021  00000-0  16522-3 0  7718
2 22077 066.0861 071.2876 0001793 000.8955 092.3045 12.86499132 50413
Epoch (UTC): 20 December 2014 20:21:29
Eccentricity: 0.0001793
inclination: 66.0861°
perigee height: 1314 km
apogee height: 1317 km
right ascension of ascending node: 71.2876°
argument of perigee: 0.8955°
revolutions per day: 12.86499132
mean anomaly at epoch: 92.3045°
orbit number at epoch: 5041

The dashed part of the orbit path shows where the satellite is in the earth's shadow,  

DLR